Whidbey Island, WA

8:59 PM PST on February 24, 2018 (GMT -0800)
Whidbey Island Naval Air Station

Weather History for KNUW - April, 2014

Change the Weather History Date:

Wednesday, April 16, 2014

  Actual Average Record
Temperature  
Mean Temperature 54 °F -  
Max Temperature 57 °F 53 °F 78 °F (1999)
Min Temperature 50 °F 39 °F 34 °F (2013)
Degree Days  
Heating Degree Days 12    
Growing Degree Days 4 (Base 50)    
Moisture  
Dew Point 47 °F    
Average Humidity 80    
Maximum Humidity 86    
Minimum Humidity 69    
Precipitation  
Precipitation 0.14 in - - ()
Sea Level Pressure  
Sea Level Pressure 30.01 in    
Wind  
Wind Speed 12 mph (SE)    
Max Wind Speed 20 mph    
Max Gust Speed 26 mph    
Visibility 9 miles    
Events Rain    
Averages and records for this station are not official NWS values.
T = Trace of Precipitation, MM = Missing Value Source: NWS Daily Summary

Daily Weather History Graph

Daily Weather History Graph

Search for Another Location

Airport or City:

Trip Planner

Search our weather history database for the weather conditions in past years. The results will help you decide how hot, cold, wet, or windy it might be!

Date:

Astronomy

Apr. 16, 2014 Rise Set
Actual Time 6:18 AM PDT 8:03 PM PDT
Civil Twilight 5:45 AM PDT 8:36 PM PDT
Nautical Twilight 5:05 AM PDT 9:17 PM PDT
Astronomical Twilight 4:20 AM PDT 10:01 PM PDT
Moon 10:00 PM PDT (4/16) 7:04 AM PDT (4/16)
Length of Visible Light 14h 50m
Length of Day
13h 44m
Full, 98% of the Moon is Illuminated
Apr 16
Full
Apr 22
Last Quarter
Apr 28
New
May 6
First Quarter
May 14
Full

Hourly Weather History & Observations

Time (PDT) Temp. Dew Point Humidity Pressure Visibility Wind Dir Wind Speed Gust Speed Precip Events Conditions
12:56 AM 52.0 °F 44.1 °F 74% 30.06 in 10.0 mi South 12.7 mph - N/A   Overcast
1:56 AM 52.0 °F 44.1 °F 74% 30.06 in 10.0 mi South 13.8 mph - N/A   Overcast
2:56 AM 51.1 °F 44.1 °F 77% 30.06 in 10.0 mi SSE 10.4 mph - N/A   Overcast
3:56 AM 51.1 °F 45.0 °F 80% 30.06 in 10.0 mi SE 10.4 mph - 0.00 in Rain Light Rain
4:56 AM 50.0 °F 46.0 °F 86% 30.05 in 10.0 mi SE 9.2 mph - 0.01 in Rain Light Rain
5:56 AM 50.0 °F 46.0 °F 86% 30.05 in 10.0 mi ESE 8.1 mph - 0.01 in Rain Light Rain
6:56 AM 50.0 °F 46.0 °F 86% 30.05 in 7.0 mi ESE 6.9 mph - 0.01 in Rain Light Rain
7:40 AM 51.1 °F 46.9 °F 86% 30.03 in 8.0 mi East 6.9 mph - 0.01 in Rain Light Rain
7:56 AM 51.1 °F 46.9 °F 86% 30.04 in 8.0 mi ESE 8.1 mph - 0.01 in Rain Light Rain
8:11 AM 51.1 °F 46.9 °F 86% 30.03 in 7.0 mi ESE 9.2 mph - 0.00 in Rain Light Rain
8:56 AM 52.0 °F 48.0 °F 86% 30.03 in 8.0 mi SE 9.2 mph - 0.00 in Rain Light Rain
9:13 AM 52.0 °F 46.9 °F 83% 30.02 in 8.0 mi ESE 9.2 mph - 0.00 in Rain Light Rain
9:37 AM 52.0 °F 46.9 °F 83% 30.02 in 8.0 mi SE 10.4 mph - 0.00 in   Overcast
9:56 AM 53.1 °F 46.9 °F 80% 30.04 in 8.0 mi SE 8.1 mph - 0.00 in Rain Light Rain
10:56 AM 53.1 °F 46.9 °F 80% 30.05 in 9.0 mi ESE 9.2 mph - 0.01 in Rain Light Rain
11:37 AM 54.0 °F 48.0 °F 80% 30.02 in 10.0 mi ESE 12.7 mph - 0.00 in   Overcast
11:56 AM 54.0 °F 46.9 °F 77% 30.04 in 10.0 mi SE 12.7 mph - 0.00 in   Overcast
12:28 PM 55.0 °F 46.9 °F 74% 30.01 in 10.0 mi SE 19.6 mph 25.3 mph N/A   Overcast
12:56 PM 55.0 °F 46.9 °F 74% 30.02 in 10.0 mi SE 16.1 mph 24.2 mph N/A   Overcast
1:56 PM 55.9 °F 46.0 °F 69% 30.02 in 10.0 mi SE 16.1 mph 23.0 mph N/A   Overcast
2:30 PM 57.0 °F 46.9 °F 69% 30.01 in 10.0 mi SE 18.4 mph 24.2 mph 0.00 in Rain Light Rain
2:56 PM 57.0 °F 46.9 °F 69% 30.02 in 10.0 mi SE 17.3 mph 25.3 mph 0.00 in Rain Light Rain
3:15 PM 55.9 °F 46.9 °F 72% 30.01 in 10.0 mi SE 17.3 mph 24.2 mph 0.00 in Rain Light Rain
3:34 PM 57.0 °F 48.0 °F 72% 30.00 in 10.0 mi SE 17.3 mph 24.2 mph 0.00 in Rain Light Rain
3:56 PM 55.9 °F 46.9 °F 72% 30.01 in 10.0 mi SE 16.1 mph - 0.00 in Rain Light Rain
4:20 PM 55.9 °F 46.9 °F 72% 30.00 in 10.0 mi SE 18.4 mph 25.3 mph 0.00 in Rain Light Rain
4:56 PM 55.0 °F 48.0 °F 77% 30.01 in 10.0 mi SE 16.1 mph 26.5 mph 0.00 in Rain Light Rain
5:56 PM 54.0 °F 48.9 °F 83% 29.99 in 10.0 mi SE 19.6 mph - 0.01 in Rain Light Rain
6:56 PM 54.0 °F 48.9 °F 83% 29.99 in 10.0 mi SSE 18.4 mph 25.3 mph 0.01 in Rain Light Rain
7:48 PM 53.1 °F 48.0 °F 83% 29.96 in 7.0 mi SE 11.5 mph - 0.01 in Rain Light Rain
7:56 PM 53.1 °F 48.9 °F 86% 29.98 in 8.0 mi SE 9.2 mph - 0.01 in Rain Light Rain
8:56 PM 53.1 °F 48.9 °F 86% 29.96 in 6.0 mi SE 10.4 mph - 0.03 in Rain Light Rain
9:11 PM 53.1 °F 48.9 °F 86% 29.94 in 8.0 mi SE 11.5 mph - 0.01 in Rain Light Rain
9:56 PM 53.1 °F 48.9 °F 86% 29.94 in 10.0 mi SE 17.3 mph 23.0 mph 0.02 in Rain Light Rain
10:56 PM 53.1 °F 48.9 °F 86% 29.92 in 10.0 mi SE 13.8 mph - 0.00 in Rain Light Rain
11:56 PM 53.1 °F 48.0 °F 83% 29.91 in 10.0 mi SE 15.0 mph 24.2 mph 0.01 in Rain Light Rain